Location: Days
(41.3591°N, 106.7339°W)
Time: 12:18:15
(UTC+00:00)

RS-15 - Pass Details

Date: 03 July 2022
Orbit: 1881 x 2163 km, 64.8° (Epoch: 13 August)

Event Time Altitude Azimuth Distance (km) Brightness Sun altitude
Rises 09:20:30 0° 314° (NW) 5,682 10.6 -19.1°
Reaches altitude 10° 09:26:32 10° 293° (WNW) 4,641 9.9 -18.5°
Maximum altitude 09:31:41 14° 266° (W) 4,280 9.5 -17.9°
Enters shadow 09:34:52 12° 249° (WSW) 4,378 9.4 -17.6°
